EHI
0 0 0 0 0 0 0 0 0 0 0 0 0 0 0 0 0 0 0 0 0 0 0 0 0 0 0 0 0 0 0 0 0 0 0 0 0 0 0 0 0 0 0
0 0 0 0 0 0 0 0 0 0 0 0 0 0 0 0 0 0 0 0 0 0 0 0 0 0 0 0 0 0 0 0 0 0 0 0 0 0 0 0 0 0 0
0 0 0 0 0 0 0 0 0 0 0 0 0 0 0 0 0 0 0 0 0 0 0 0 0 0 0 0 0 0 0 0 0 0 0 0 0 0 0 0 0 0 0
0 0 0 0 0 0 0 0 0 0 0 0 0 0 0 0 0 0 0 0 0 0 0 0 0 0 0 0 0 0 0 0 0 0 0 0 0 0 0 0 0 0 0
0 0 0 0 0 0 0 0 0 0 0 0 0 0 0 0 0 0 0 0 0 0 0 0 0 0 0 0 0 0 0 0 0 0 0 0 0 0 0 0 0 0 0
0 0 0 0 0 0 0 0 0 0 0 0 0 0 0 0 0 0 0 0 0 0 0 0 0 0 0 0 0 0 0 0 0 0 0 0 0 0 0 0 0 0 0
0 0 0 0 0 0 0 0 0 0 0 0 0 0 0 0 0 0 0 0 0 0 0 0 0 0 0 0 0 0 0 0 0 0 0 0 0 0 0 0 0 0 0
0 0 0 0 0 0 0 0 0 0 0 0 0 0 0 0 0 0 0 0 0 0 0 0 0 0 0 0 0 0 0 0 0 0 0 0 0 0 0 0 0 0 0
0 0 0 0 0 0 0 0 0 0 0 0 0 0 0 0 0 0 0 0 0 0 0 0 0 0 0 0 0 0 0 0 0 0 0 0 0 0 0 0 0 0 0
0 0 0 0 0 0 0 0 0 0 0 0 0 0 0 0 0 0 0 0 0 0 0 0 0 0 0 0 0 0 0 0 0 0 0 0 0 0 0 0 0 0 0
0 0 0 0 0 0 0 0 0 0 0 0 0 0 0 0 0 0 0 0 0 0 0 0 0 0 0 0 0 0 0 0 0 0 0 0 0 0 0 0 0 0 0
0 0 0 0 0 0 0 0 0 0 0 0 0 0 0 0 0 0 0 0 0 0 0 0 0 0 0 0 0 0 0 0 0 0 0 0 0 0 0 0 0 0 0
0 0 0 0 0 0 0 0 0 0 0 0 0 0 0 0 0 0 0 0 0 0 0 0 0 0 0 0 0 0 0 0 0 0 0 0 0 0 0 0 0 0 0
0 0 0 0 0 0 0 0 0 0 0 0 0 0 0 0 0 0 0 0 0 0 0 0 0 0 0 0 0 0 0 0 0 0 0 0 0 0 0 0 0 0 0
0 0 0 0 0 0 0 0 0 0 0 0 0 0 0 0 0 0 0 0 0 0 0 0 0 0 0 0 0 0 0 0 0 0 0 0 0 0 0 0 0 0 0
0 0 0 0 0 0 0 0 0 0 0 0 0 0 0 0 0 0 0 0 0 0 0 0 0 0 0 0 0 0 0 0 0 0 0 0 0 0 0 0 0 0 0
0 0 0 0 0 0 0 0 0 0 0 0 0 0 0 0 0 0 0 0 0 0 0 0 0 0 0 0 0 0 0 0 0 0 0 0 0 0 0 0 0 0 0
0 0 0 0 0 0 0 0 0 0 0 0 0 0 0 0 0 0 0 0 0 0 0 0 0 0 0 0 0 0 0 0 0 0 0 0 0 0 0 0 0 0 0
0 0 0 0 0 0 0 0 0 0 0 0 0 0 0 0 0 0 0 0 0 0 0 0 0 0 0 0 0 0 0 0 0 0 0 0 0 0 0 0 0 0 0
0 0 0 0 0 0 0 0 0 0 0 0 0 0 0 0 0 0 0 0 0 0 0 0 0 0 0 0 0 0 0 0 0 0 0 0 0 0 0 0 0 0 0
0 0 0 0 0 0 0 0 0 0 0 0 0 0 0 0 0 0 0 0 0 0 0 0 0 0 0 0 0 0 0 0 0 0 0 0 0 0 0 0 0 0 0
0 0 0 0 0 0 0 0 0 0 0 0 0 0 0 0 0 0 0 0 0 0 0 0 0 0 0 0 0 0 0 0 0 0 0 0 0 0 0 0 0 0 0
0 0 0 0 0 0 0 0 0 0 0 0 0 0 0 0 0 0 0 0 0 0 0 0 0 0 0 0 0 0 0 0 0 0 0 0 0 0 0 0 0 0 0
0 0 0 0 0 0 0 0 0 0 0 0 0 0 0 0 0 0 0 0 0 0 0 0 0 0 0 0 0 0 0 0 0 0 0 0 0 0 0 0 0 0 0
0 0 0 0 0 0 0 0 0 0 0 0 0 0 0 0 0 0 0 0 0 0 0 0 0 0 0 0 0 0 0 0 0 0 0 0 0 0 0 0 0 0 0
0 0 0 0 0 0 0 0 0 0 0 0 0 0 0 0 0 0 0 0 0 0 0 0 0 0 0 0 0 0 0 0 0 0 0 0 0 0 0 0 0 0 0
Wind_Speed
6 7 8 8 9 10 9 11 12 12 13 13 14 14 14 15 14 13 13 14 13 13 12 12 12 11 9 8 8 8 8 9 12 12 12 12 15 14 12 11 11 12 11
6 7 7 8 9 9 10 11 12 12 13 13 13 14 14 14 14 13 13 13 13 13 13 13 13 12 13 11 9 10 9 10 11 14 13 12 14 13 13 12 11 10 10
6 7 7 8 9 10 10 11 11 12 13 13 13 14 13 13 13 12 11 11 11 12 13 13 13 14 14 12 13 11 10 10 10 11 13 11 10 10 11 11 11 10 10
5 7 7 8 9 10 10 11 11 12 12 13 14 14 13 12 12 10 8 9 10 11 12 12 13 14 15 15 12 12 12 12 11 10 10 10 9 9 8 6 7 7 8
5 6 7 8 9 9 10 10 11 11 12 12 13 14 14 12 11 10 5 7 9 11 12 12 13 17 20 16 12 13 12 10 10 9 9 9 8 8 6 5 7 6 7
5 6 7 7 8 9 10 10 11 11 12 12 12 14 14 11 20 20 9 7 9 10 12 12 14 15 19 20 18 18 16 13 11 9 8 9 10 9 8 7 7 5 4
5 6 6 7 8 9 10 10 11 11 11 12 12 13 14 16 22 22 15 10 10 10 11 12 12 14 19 13 13 17 16 16 14 11 10 10 11 10 10 9 8 6 5
5 6 6 7 8 9 10 10 11 10 10 11 12 13 13 15 22 23 19 11 9 9 10 12 14 15 16 17 12 12 13 10 12 10 9 9 10 10 9 9 9 9 9
6 6 6 7 8 9 10 11 11 10 11 11 11 12 13 15 20 23 20 10 7 10 10 11 14 15 21 23 15 14 14 11 12 16 15 13 13 13 10 6 6 5 4
6 6 7 7 8 10 11 11 10 10 11 11 11 12 13 14 18 22 21 8 7 9 9 10 14 19 22 22 15 14 15 13 12 12 11 11 9 9 10 6 5 5 4
5 6 7 8 8 10 10 10 10 10 11 11 12 12 13 14 16 19 19 8 7 9 8 9 10 21 21 21 18 14 17 16 11 11 9 8 7 6 6 6 5 5 5
5 6 7 8 7 7 9 10 9 9 10 11 11 11 10 12 13 14 16 14 12 8 8 9 11 20 20 19 16 20 22 17 10 9 9 8 8 8 8 8 7 6 7
6 6 7 7 7 7 8 9 8 7 7 9 9 10 10 10 11 13 13 14 14 8 7 12 15 17 16 13 19 21 17 11 10 10 10 10 9 9 8 7 6 5 6
6 6 6 6 7 7 6 6 6 6 7 9 9 10 10 10 10 9 9 9 10 8 7 10 13 13 12 14 14 13 11 11 12 10 11 10 9 9 8 8 6 6 3
6 5 5 5 6 6 5 5 6 6 7 9 8 9 10 11 14 19 12 10 9 9 9 7 7 8 9 9 10 10 10 11 11 11 11 11 10 10 9 8 7 6 4
6 5 4 4 4 5 5 5 5 6 10 10 11 11 10 14 19 19 17 15 15 15 9 7 7 8 8 9 10 10 10 11 12 11 11 11 11 10 10 9 8 7 6
7 5 4 4 4 4 5 5 6 5 5 7 10 12 14 16 17 17 17 14 13 13 8 7 7 7 7 8 8 9 10 11 11 11 11 11 11 11 10 10 10 8 7
8 7 5 4 4 4 4 4 5 6 7 5 6 10 14 15 14 15 15 12 9 9 8 8 8 7 7 7 7 8 8 9 10 10 11 11 11 11 10 10 10 10 8
9 6 5 4 4 4 4 4 4 5 5 6 6 7 12 13 11 12 12 7 8 8 9 8 8 7 6 6 6 6 7 8 9 10 10 11 11 10 10 10 10 13 10
8 10 8 5 4 4 4 3 3 4 4 5 5 6 8 8 7 8 8 7 7 8 9 9 9 8 7 6 5 5 6 7 8 9 9 10 10 10 11 11 10 10 9
8 9 11 6 5 4 4 3 3 3 4 4 4 5 10 6 6 7 7 7 8 8 9 9 9 8 7 5 4 4 5 5 6 7 8 9 9 10 10 10 10 9 9
8 8 7 6 5 5 4 3 3 3 3 4 4 4 7 5 5 6 6 7 8 8 8 9 8 8 7 6 5 4 4 4 4 6 7 8 8 9 9 9 10 9 8
9 9 8 6 5 6 5 4 4 3 3 3 3 4 4 4 5 6 7 7 8 8 8 8 9 8 8 6 4 3 3 2 2 4 5 6 7 8 8 9 11 10 10
11 10 9 7 7 6 6 5 4 3 3 3 3 3 3 4 5 6 6 7 8 8 8 9 9 12 14 9 4 3 2 2 1 0 3 5 6 7 7 8 9 10 9
11 10 9 8 8 7 6 5 5 4 3 3 2 2 3 4 4 5 6 7 9 9 11 11 9 11 14 13 8 4 3 6 4 2 1 2 4 5 6 7 8 9 9
12 11 10 8 8 7 7 6 5 5 4 3 2 2 3 3 4 5 5 6 8 9 10 9 12 15 15 10 8 6 3 6 8 6 2 1 3 4 5 6 8 8 9
Wind_Direction
315 316 317 320 319 318 317 319 320 320 323 325 326 327 329 330 330 329 334 335 334 335 336 333 330 323 318 314 308 300 295 290 289 293 296 298 298 293 287 277 270 265 262
309 310 314 317 318 319 319 320 320 321 323 324 325 326 327 328 326 325 330 332 332 332 332 331 330 329 328 326 321 313 308 301 295 297 299 299 298 297 289 279 267 257 252
300 305 310 316 320 320 320 319 320 321 322 325 325 324 324 324 322 317 325 327 330 329 328 329 328 326 327 328 326 322 318 311 302 295 297 299 299 297 292 278 264 252 249
293 300 307 317 320 319 318 318 320 321 323 324 321 320 320 319 317 305 308 321 327 329 330 328 326 323 324 325 327 328 324 316 307 300 300 304 303 305 292 285 274 251 244
285 296 306 313 315 315 316 317 319 320 321 320 320 319 319 320 316 311 290 319 329 332 333 330 325 326 327 329 332 331 328 321 313 310 307 309 315 322 317 308 292 279 248
276 287 295 303 306 309 311 316 318 319 319 319 316 315 317 318 320 331 336 330 334 336 335 332 327 328 328 330 331 334 332 325 323 318 310 312 316 320 319 315 309 288 243
265 279 288 295 301 306 309 313 317 317 316 315 313 314 315 317 322 327 333 331 332 337 335 332 331 330 333 325 334 336 328 326 329 324 311 312 313 318 318 316 314 306 293
259 270 279 289 295 302 308 312 315 315 314 310 311 315 317 317 322 324 327 323 325 333 332 331 333 333 330 344 342 334 327 329 328 321 312 311 311 312 312 305 299 295 279
251 263 274 281 288 297 303 309 314 313 309 308 313 317 318 318 319 320 326 319 324 328 333 335 336 337 340 350 347 338 333 337 335 330 328 324 324 324 330 321 311 295 272
245 263 274 280 285 294 302 310 312 312 309 314 316 318 317 315 317 320 329 326 327 331 338 338 339 345 349 352 351 343 340 342 337 332 331 331 331 329 337 331 314 303 298
242 265 274 280 288 295 300 305 308 310 312 315 317 320 320 325 327 328 336 346 340 337 340 340 342 349 353 353 354 351 349 347 337 333 333 337 340 339 337 326 303 284 287
235 262 274 282 288 289 299 305 309 314 316 319 321 324 329 333 338 338 348 356 355 345 342 342 344 350 353 354 356 357 355 353 344 341 344 348 346 343 336 324 304 277 259
229 255 273 284 287 291 300 307 314 322 321 320 325 329 331 335 341 349 352 351 353 352 342 342 346 351 351 352 356 359 357 354 350 350 350 348 343 338 336 332 324 301 268
228 251 270 283 292 300 303 305 313 320 321 324 333 332 333 339 350 358 359 355 353 351 342 337 342 348 353 354 356 358 357 357 355 350 347 346 346 349 354 351 347 342 330
223 242 262 275 288 298 304 306 310 314 323 329 331 330 334 341 351 358 6 -0 358 356 344 338 343 347 352 355 356 358 358 357 357 353 352 353 354 356 358 358 357 358 9
213 230 251 272 288 299 306 306 297 305 325 335 337 337 335 342 348 355 2 1 359 359 353 348 348 347 349 351 352 354 357 359 356 353 356 357 357 358 359 1 5 8 11
206 216 238 260 282 298 309 313 318 319 320 335 346 345 345 347 351 354 358 356 357 359 355 351 348 344 343 344 348 351 354 356 354 355 358 359 358 360 3 5 7 8 8
200 211 228 245 264 279 292 301 308 318 323 333 344 347 348 352 354 357 359 355 354 359 352 348 346 342 338 338 342 346 348 353 357 356 359 0 0 2 6 6 8 8 6
193 199 210 228 244 261 271 283 297 307 313 322 331 343 349 351 354 0 1 359 350 347 346 343 342 340 335 333 335 338 343 351 357 356 0 1 1 4 6 6 6 8 13
193 200 206 217 228 241 247 263 287 305 315 323 335 341 341 348 352 354 355 351 346 342 339 338 337 336 334 331 329 331 337 348 357 1 1 1 1 4 5 7 8 8 10
183 191 202 209 219 226 232 245 269 292 308 319 330 333 345 346 344 345 344 344 342 337 334 332 332 333 333 329 323 323 327 341 354 359 1 2 2 4 6 7 9 12 13
178 181 187 198 206 214 221 228 246 270 294 308 323 332 343 344 342 341 339 338 336 331 329 327 327 330 331 327 318 313 317 330 347 356 1 4 4 6 8 12 12 14 19
178 180 185 192 199 208 214 218 227 246 275 300 315 329 340 342 339 338 336 334 332 331 330 329 328 331 334 325 312 293 289 305 336 352 355 3 7 10 12 14 17 19 24
179 182 185 188 193 201 206 207 212 226 251 276 299 321 332 332 329 332 332 331 332 330 332 331 330 332 335 334 319 287 249 236 226 352 359 6 11 12 16 16 20 22 26
179 182 186 188 191 196 199 202 205 211 225 248 279 305 318 323 326 329 331 331 332 331 333 334 333 335 335 333 327 313 238 206 199 167 98 20 25 20 21 22 23 28 31
180 182 184 186 190 192 194 197 199 202 211 223 248 281 300 312 320 326 329 332 333 330 332 333 335 336 335 334 327 323 237 196 188 177 156 86 39 31 25 31 31 34 37